Year,Month,Day,Hour,Minute,Value (Times are PST for temperature in C)
2021,06,27,00,00,24.70
2021,06,27,00,01,24.70
2021,06,27,00,02,24.70
2021,06,27,00,03,24.70
2021,06,27,00,04,24.70
2021,06,27,00,05,24.70
2021,06,27,00,06,24.60
2021,06,27,00,07,24.60
2021,06,27,00,08,24.60
2021,06,27,00,09,24.60
2021,06,27,00,10,24.60
2021,06,27,00,11,24.60
2021,06,27,00,12,24.50
2021,06,27,00,13,24.50
2021,06,27,00,14,24.50
2021,06,27,00,15,24.40
2021,06,27,00,16,24.40
2021,06,27,00,17,24.40
2021,06,27,00,18,24.40
2021,06,27,00,19,24.30
2021,06,27,00,20,24.30
2021,06,27,00,21,24.30
2021,06,27,00,22,24.30
2021,06,27,00,23,24.30
2021,06,27,00,24,24.20
2021,06,27,00,25,24.20
2021,06,27,00,26,24.20
2021,06,27,00,27,24.20
2021,06,27,00,28,24.20
2021,06,27,00,29,24.10
2021,06,27,00,30,24.10
2021,06,27,00,31,24.10
2021,06,27,00,32,24.10
2021,06,27,00,33,24.10
2021,06,27,00,34,24.00
2021,06,27,00,35,24.00
2021,06,27,00,36,24.00
2021,06,27,00,37,24.00
2021,06,27,00,38,24.00
2021,06,27,00,39,24.00
2021,06,27,00,40,24.00
2021,06,27,00,41,23.90
2021,06,27,00,42,23.90
2021,06,27,00,43,23.90
2021,06,27,00,44,23.90
2021,06,27,00,45,23.90
2021,06,27,00,46,23.90
2021,06,27,00,47,23.90
2021,06,27,00,48,23.90
2021,06,27,00,49,23.90
2021,06,27,00,50,23.90
2021,06,27,00,51,23.90
2021,06,27,00,52,23.90
2021,06,27,00,53,23.90
2021,06,27,00,54,23.80
2021,06,27,00,55,23.80
2021,06,27,00,56,23.80
2021,06,27,00,57,23.80
2021,06,27,00,58,23.80
2021,06,27,00,59,23.80
2021,06,27,01,00,23.80
2021,06,27,01,01,23.80
2021,06,27,01,02,23.80
2021,06,27,01,03,23.80
2021,06,27,01,04,23.80
2021,06,27,01,05,23.90
2021,06,27,01,06,23.90
2021,06,27,01,07,23.90
2021,06,27,01,08,23.80
2021,06,27,01,09,23.80
2021,06,27,01,10,23.80
2021,06,27,01,11,23.70
2021,06,27,01,12,23.70
2021,06,27,01,13,23.70
2021,06,27,01,14,23.60
2021,06,27,01,15,23.60
2021,06,27,01,16,23.50
2021,06,27,01,17,23.50
2021,06,27,01,18,23.50
2021,06,27,01,19,23.40
2021,06,27,01,20,23.40
2021,06,27,01,21,23.40
2021,06,27,01,22,23.40
2021,06,27,01,23,23.40
2021,06,27,01,24,23.40
2021,06,27,01,25,23.40
2021,06,27,01,26,23.40
2021,06,27,01,27,23.40
2021,06,27,01,28,23.40
2021,06,27,01,29,23.30
2021,06,27,01,30,23.30
2021,06,27,01,31,23.30
2021,06,27,01,32,23.30
2021,06,27,01,33,23.30
2021,06,27,01,34,23.40
2021,06,27,01,35,23.50
2021,06,27,01,36,23.60
2021,06,27,01,37,23.60
2021,06,27,01,38,23.70
2021,06,27,01,39,23.80
2021,06,27,01,40,23.80
2021,06,27,01,41,23.80
2021,06,27,01,42,24.00
2021,06,27,01,43,24.00
2021,06,27,01,44,24.10
2021,06,27,01,45,24.20
2021,06,27,01,46,24.30
2021,06,27,01,47,24.30
2021,06,27,01,48,24.30
2021,06,27,01,49,24.30
2021,06,27,01,50,24.30
2021,06,27,01,51,24.30
2021,06,27,01,52,24.20
2021,06,27,01,53,24.20
2021,06,27,01,54,24.20
2021,06,27,01,55,24.10
2021,06,27,01,56,24.10
2021,06,27,01,57,24.10
2021,06,27,01,58,24.00
2021,06,27,01,59,24.00
2021,06,27,02,00,24.10
2021,06,27,02,01,24.20
2021,06,27,02,02,24.20
2021,06,27,02,03,24.20
2021,06,27,02,04,24.20
2021,06,27,02,05,24.10
2021,06,27,02,06,24.00
2021,06,27,02,07,24.00
2021,06,27,02,08,23.90
2021,06,27,02,09,23.80
2021,06,27,02,10,23.80
2021,06,27,02,11,23.70
2021,06,27,02,12,23.60
2021,06,27,02,13,23.70
2021,06,27,02,14,23.70
2021,06,27,02,15,23.70
2021,06,27,02,16,23.80
2021,06,27,02,17,23.80
2021,06,27,02,18,23.80
2021,06,27,02,19,23.80
2021,06,27,02,20,23.80
2021,06,27,02,21,23.80
2021,06,27,02,22,23.90
2021,06,27,02,23,24.00
2021,06,27,02,24,24.00
2021,06,27,02,25,24.10
2021,06,27,02,26,24.20
2021,06,27,02,27,24.30
2021,06,27,02,28,24.30
2021,06,27,02,29,24.30
2021,06,27,02,30,24.30
2021,06,27,02,31,24.30
2021,06,27,02,32,24.30
2021,06,27,02,33,24.30
2021,06,27,02,34,24.20
2021,06,27,02,35,24.20
2021,06,27,02,36,24.20
2021,06,27,02,37,24.10
2021,06,27,02,38,24.10
2021,06,27,02,39,24.10
2021,06,27,02,40,24.00
2021,06,27,02,41,24.00
2021,06,27,02,42,23.90
2021,06,27,02,43,23.90
2021,06,27,02,44,23.90
2021,06,27,02,45,23.90
2021,06,27,02,46,23.90
2021,06,27,02,47,23.80
2021,06,27,02,48,23.80
2021,06,27,02,49,23.80
2021,06,27,02,50,23.80
2021,06,27,02,51,23.80
2021,06,27,02,52,23.80
2021,06,27,02,53,23.80
2021,06,27,02,54,23.80
2021,06,27,02,55,23.80
2021,06,27,02,56,23.80
2021,06,27,02,57,23.70
2021,06,27,02,58,23.60
2021,06,27,02,59,23.60
2021,06,27,03,00,23.50
2021,06,27,03,01,23.40
2021,06,27,03,02,23.40
2021,06,27,03,03,23.40
2021,06,27,03,04,23.50
2021,06,27,03,05,23.50
2021,06,27,03,06,23.60
2021,06,27,03,07,23.70
2021,06,27,03,08,23.70
2021,06,27,03,09,23.80
2021,06,27,03,10,23.80
2021,06,27,03,11,23.80
2021,06,27,03,12,23.80
2021,06,27,03,13,23.80
2021,06,27,03,14,23.80
2021,06,27,03,15,23.80
2021,06,27,03,16,23.80
2021,06,27,03,17,23.90
2021,06,27,03,18,23.90
2021,06,27,03,19,23.90
2021,06,27,03,20,23.90
2021,06,27,03,21,23.80
2021,06,27,03,22,23.80
2021,06,27,03,23,23.80
2021,06,27,03,24,23.80
2021,06,27,03,25,23.70
2021,06,27,03,26,23.70
2021,06,27,03,27,23.70
2021,06,27,03,28,23.70
2021,06,27,03,29,23.70
2021,06,27,03,30,23.80
2021,06,27,03,31,23.80
2021,06,27,03,32,23.70
2021,06,27,03,33,23.70
2021,06,27,03,34,23.70
2021,06,27,03,35,23.80
2021,06,27,03,36,23.80
2021,06,27,03,37,23.80
2021,06,27,03,38,23.90
2021,06,27,03,39,24.00
2021,06,27,03,40,24.00
2021,06,27,03,41,24.00
2021,06,27,03,42,24.10
2021,06,27,03,43,24.10
2021,06,27,03,44,24.10
2021,06,27,03,45,24.10
2021,06,27,03,46,24.20
2021,06,27,03,47,24.10
2021,06,27,03,48,24.20
2021,06,27,03,49,24.20
2021,06,27,03,50,24.20
2021,06,27,03,51,24.20
2021,06,27,03,52,24.20
2021,06,27,03,53,24.20
2021,06,27,03,54,24.10
2021,06,27,03,55,24.10
2021,06,27,03,56,24.00
2021,06,27,03,57,24.00
2021,06,27,03,58,23.90
2021,06,27,03,59,23.90
2021,06,27,04,00,23.90
2021,06,27,04,01,23.80
2021,06,27,04,02,23.70
2021,06,27,04,03,23.70
2021,06,27,04,04,23.60
2021,06,27,04,05,23.50
2021,06,27,04,06,23.50
2021,06,27,04,07,23.50
2021,06,27,04,08,23.50
2021,06,27,04,09,23.50
2021,06,27,04,10,23.40
2021,06,27,04,11,23.40
2021,06,27,04,12,23.30
2021,06,27,04,13,23.30
2021,06,27,04,14,23.40
2021,06,27,04,15,23.40
2021,06,27,04,16,23.40
2021,06,27,04,17,23.40
2021,06,27,04,18,23.40
2021,06,27,04,19,23.40
2021,06,27,04,20,23.40
2021,06,27,04,21,23.40
2021,06,27,04,22,23.40
2021,06,27,04,23,23.40
2021,06,27,04,24,23.30
2021,06,27,04,25,23.30
2021,06,27,04,26,23.30
2021,06,27,04,27,23.30
2021,06,27,04,28,23.30
2021,06,27,04,29,23.30
2021,06,27,04,30,23.30
2021,06,27,04,31,23.20
2021,06,27,04,32,23.20
2021,06,27,04,33,23.20
2021,06,27,04,34,23.20
2021,06,27,04,35,23.10
2021,06,27,04,36,23.10
2021,06,27,04,37,23.10
2021,06,27,04,38,23.10
2021,06,27,04,39,23.10
2021,06,27,04,40,23.10
2021,06,27,04,41,23.10
2021,06,27,04,42,23.10
2021,06,27,04,43,23.10
2021,06,27,04,44,23.10
2021,06,27,04,45,23.10
2021,06,27,04,46,23.00
2021,06,27,04,47,23.00
2021,06,27,04,48,23.00
2021,06,27,04,49,23.00
2021,06,27,04,50,22.90
2021,06,27,04,51,22.90
2021,06,27,04,52,22.90
2021,06,27,04,53,22.90
2021,06,27,04,54,22.90
2021,06,27,04,55,22.90
2021,06,27,04,56,22.90
2021,06,27,04,57,22.80
2021,06,27,04,58,22.80
2021,06,27,04,59,22.80
2021,06,27,05,00,22.80
2021,06,27,05,01,22.80
2021,06,27,05,02,22.80
2021,06,27,05,03,22.80
2021,06,27,05,04,22.80
2021,06,27,05,05,22.80
2021,06,27,05,06,22.80
2021,06,27,05,07,22.80
2021,06,27,05,08,22.70
2021,06,27,05,09,22.80
2021,06,27,05,10,22.70
2021,06,27,05,11,22.70
2021,06,27,05,12,22.70
2021,06,27,05,13,22.70
2021,06,27,05,14,22.70
2021,06,27,05,15,22.70
2021,06,27,05,16,22.70
2021,06,27,05,17,22.70
2021,06,27,05,18,22.70
2021,06,27,05,19,22.70
2021,06,27,05,20,22.70
2021,06,27,05,21,22.70
2021,06,27,05,22,22.60
2021,06,27,05,23,22.60
2021,06,27,05,24,22.60
2021,06,27,05,25,22.60
2021,06,27,05,26,22.60
2021,06,27,05,27,22.60
2021,06,27,05,28,22.50
2021,06,27,05,29,22.50
2021,06,27,05,30,22.50
2021,06,27,05,31,22.50
2021,06,27,05,32,22.50
2021,06,27,05,33,22.50
2021,06,27,05,34,22.50
2021,06,27,05,35,22.50
2021,06,27,05,36,22.50
2021,06,27,05,37,22.50
2021,06,27,05,38,22.50
2021,06,27,05,39,22.50
2021,06,27,05,40,22.50
2021,06,27,05,41,22.50
2021,06,27,05,42,22.50
2021,06,27,05,43,22.40
2021,06,27,05,44,22.50
2021,06,27,05,45,22.40
2021,06,27,05,46,22.40
2021,06,27,05,47,22.40
2021,06,27,05,48,22.40
2021,06,27,05,49,22.40
2021,06,27,05,50,22.50
2021,06,27,05,51,22.50
2021,06,27,05,52,22.50
2021,06,27,05,53,22.50
2021,06,27,05,54,22.60
2021,06,27,05,55,22.60
2021,06,27,05,56,22.60
2021,06,27,05,57,22.60
2021,06,27,05,58,22.60
2021,06,27,05,59,22.60
2021,06,27,06,00,22.60
2021,06,27,06,01,22.60
2021,06,27,06,02,22.60
2021,06,27,06,03,22.60
2021,06,27,06,04,22.60
2021,06,27,06,05,22.70
2021,06,27,06,06,22.70
2021,06,27,06,07,22.70
2021,06,27,06,08,22.70
2021,06,27,06,09,22.70
2021,06,27,06,10,22.80
2021,06,27,06,11,22.80
2021,06,27,06,12,22.80
2021,06,27,06,13,22.80
2021,06,27,06,14,22.90
2021,06,27,06,15,22.90
2021,06,27,06,16,23.00
2021,06,27,06,17,23.00
2021,06,27,06,18,23.00
2021,06,27,06,19,23.00
2021,06,27,06,20,23.10
2021,06,27,06,21,23.10
2021,06,27,06,22,23.10
2021,06,27,06,23,23.20
2021,06,27,06,24,23.20
2021,06,27,06,25,23.20
2021,06,27,06,26,23.30
2021,06,27,06,27,23.30
2021,06,27,06,28,23.40
2021,06,27,06,29,23.50
2021,06,27,06,30,23.50
2021,06,27,06,31,23.60
2021,06,27,06,32,23.70
2021,06,27,06,33,23.70
2021,06,27,06,34,23.70
2021,06,27,06,35,23.80
2021,06,27,06,36,23.80
2021,06,27,06,37,23.90
2021,06,27,06,38,23.90
2021,06,27,06,39,24.00
2021,06,27,06,40,24.00
2021,06,27,06,41,24.10
2021,06,27,06,42,24.10
2021,06,27,06,43,24.10
2021,06,27,06,44,24.20
2021,06,27,06,45,24.20
2021,06,27,06,46,24.20
2021,06,27,06,47,24.30
2021,06,27,06,48,24.40
2021,06,27,06,49,24.50
2021,06,27,06,50,24.60
2021,06,27,06,51,24.60
2021,06,27,06,52,24.70
2021,06,27,06,53,24.70
2021,06,27,06,54,24.70
2021,06,27,06,55,24.80
2021,06,27,06,56,24.80
2021,06,27,06,57,24.90
2021,06,27,06,58,24.90
2021,06,27,06,59,25.00
2021,06,27,07,00,25.00
2021,06,27,07,01,25.10
2021,06,27,07,02,25.10
2021,06,27,07,03,25.20
2021,06,27,07,04,25.30
2021,06,27,07,05,25.30
2021,06,27,07,06,25.40
2021,06,27,07,07,25.40
2021,06,27,07,08,25.50
2021,06,27,07,09,25.60
2021,06,27,07,10,25.70
2021,06,27,07,11,25.90
2021,06,27,07,12,26.00
2021,06,27,07,13,26.10
2021,06,27,07,14,26.20
2021,06,27,07,15,26.40
2021,06,27,07,16,26.50
2021,06,27,07,17,26.60
2021,06,27,07,18,26.70
2021,06,27,07,19,26.80
2021,06,27,07,20,26.90
2021,06,27,07,21,27.00
2021,06,27,07,22,27.10
2021,06,27,07,23,27.20
2021,06,27,07,24,27.30
2021,06,27,07,25,27.50
2021,06,27,07,26,27.60
2021,06,27,07,27,27.80
2021,06,27,07,28,27.90
2021,06,27,07,29,28.10
2021,06,27,07,30,28.20
2021,06,27,07,31,28.40
2021,06,27,07,32,28.50
2021,06,27,07,33,28.60
2021,06,27,07,34,28.60
2021,06,27,07,35,28.70
2021,06,27,07,36,28.80
2021,06,27,07,37,28.80
2021,06,27,07,38,28.80
2021,06,27,07,39,28.80
2021,06,27,07,40,28.80
2021,06,27,07,41,28.70
2021,06,27,07,42,28.70
2021,06,27,07,43,28.60
2021,06,27,07,44,28.60
2021,06,27,07,45,28.60
2021,06,27,07,46,28.60
2021,06,27,07,47,28.60
2021,06,27,07,48,28.60
2021,06,27,07,49,28.60
2021,06,27,07,50,28.60
2021,06,27,07,51,28.60
2021,06,27,07,52,28.50
2021,06,27,07,53,28.60
2021,06,27,07,54,28.60
2021,06,27,07,55,28.60
2021,06,27,07,56,28.60
2021,06,27,07,57,28.70
2021,06,27,07,58,28.70
2021,06,27,07,59,28.70
2021,06,27,08,00,28.70
2021,06,27,08,01,28.70
2021,06,27,08,02,28.70
2021,06,27,08,03,28.70
2021,06,27,08,04,28.80
2021,06,27,08,05,28.80
2021,06,27,08,06,28.80
2021,06,27,08,07,28.80
2021,06,27,08,08,28.80
2021,06,27,08,09,28.80
2021,06,27,08,10,28.80
2021,06,27,08,11,28.80
2021,06,27,08,12,28.90
2021,06,27,08,13,28.90
2021,06,27,08,14,28.90
2021,06,27,08,15,28.90
2021,06,27,08,16,28.90
2021,06,27,08,17,28.80
2021,06,27,08,18,28.90
2021,06,27,08,19,28.90
2021,06,27,08,20,28.90
2021,06,27,08,21,28.90
2021,06,27,08,22,28.90
2021,06,27,08,23,28.90
2021,06,27,08,24,28.90
2021,06,27,08,25,29.00
2021,06,27,08,26,29.00
2021,06,27,08,27,29.00
2021,06,27,08,28,29.00
2021,06,27,08,29,29.10
2021,06,27,08,30,29.10
2021,06,27,08,31,29.20
2021,06,27,08,32,29.20
2021,06,27,08,33,29.10
2021,06,27,08,34,29.00
2021,06,27,08,35,29.00
2021,06,27,08,36,29.00
2021,06,27,08,37,28.90
2021,06,27,08,38,28.80
2021,06,27,08,39,28.70
2021,06,27,08,40,28.70
2021,06,27,08,41,28.60
2021,06,27,08,42,28.60
2021,06,27,08,43,28.60
2021,06,27,08,44,28.60
2021,06,27,08,45,28.50
2021,06,27,08,46,28.50
2021,06,27,08,47,28.50
2021,06,27,08,48,28.50
2021,06,27,08,49,28.50
2021,06,27,08,50,28.50
2021,06,27,08,51,28.50
2021,06,27,08,52,28.40
2021,06,27,08,53,28.30
2021,06,27,08,54,28.30
2021,06,27,08,55,28.30
2021,06,27,08,56,28.30
2021,06,27,08,57,28.30
2021,06,27,08,58,28.30
2021,06,27,08,59,28.30
2021,06,27,09,00,28.30
2021,06,27,09,01,28.30
2021,06,27,09,02,28.30
2021,06,27,09,03,28.40
2021,06,27,09,04,28.40
2021,06,27,09,05,28.50
2021,06,27,09,06,28.60
2021,06,27,09,07,28.70
2021,06,27,09,08,28.70
2021,06,27,09,09,28.80
2021,06,27,09,10,28.80
2021,06,27,09,11,28.70
2021,06,27,09,12,28.70
2021,06,27,09,13,28.80
2021,06,27,09,14,28.80
2021,06,27,09,15,28.90
2021,06,27,09,16,28.90
2021,06,27,09,17,29.00
2021,06,27,09,18,29.00
2021,06,27,09,19,29.10
2021,06,27,09,20,29.00
2021,06,27,09,21,29.00
2021,06,27,09,22,29.00
2021,06,27,09,23,29.10
2021,06,27,09,24,29.10
2021,06,27,09,25,29.00
2021,06,27,09,26,29.00
2021,06,27,09,27,29.00
2021,06,27,09,28,29.00
2021,06,27,09,29,29.00
2021,06,27,09,30,29.00
2021,06,27,09,31,28.90
2021,06,27,09,32,28.80
2021,06,27,09,33,28.80
2021,06,27,09,34,28.70
2021,06,27,09,35,28.60
2021,06,27,09,36,28.60
2021,06,27,09,37,28.60
2021,06,27,09,38,28.60
2021,06,27,09,39,28.50
2021,06,27,09,40,28.50
2021,06,27,09,41,28.50
2021,06,27,09,42,28.60
2021,06,27,09,43,28.60
2021,06,27,09,44,28.60
2021,06,27,09,45,28.50
2021,06,27,09,46,28.50
2021,06,27,09,47,28.40
2021,06,27,09,48,28.40
2021,06,27,09,49,28.40
2021,06,27,09,50,28.40
2021,06,27,09,51,28.40
2021,06,27,09,52,28.40
2021,06,27,09,53,28.50
2021,06,27,09,54,28.50
2021,06,27,09,55,28.60
2021,06,27,09,56,28.70
2021,06,27,09,57,28.70
2021,06,27,09,58,28.80
2021,06,27,09,59,28.80
2021,06,27,10,00,28.80
2021,06,27,10,01,28.80
2021,06,27,10,02,28.90
2021,06,27,10,03,28.90
2021,06,27,10,04,28.90
2021,06,27,10,05,28.90
2021,06,27,10,06,28.90
2021,06,27,10,07,28.90
2021,06,27,10,08,28.90
2021,06,27,10,09,28.90
2021,06,27,10,10,28.90
2021,06,27,10,11,28.90
2021,06,27,10,12,28.80
2021,06,27,10,13,28.80
2021,06,27,10,14,28.90
2021,06,27,10,15,28.90
2021,06,27,10,16,29.00
2021,06,27,10,17,29.00
2021,06,27,10,18,29.00
2021,06,27,10,19,28.90
2021,06,27,10,20,28.90
2021,06,27,10,21,28.90
2021,06,27,10,22,28.90
2021,06,27,10,23,28.90
2021,06,27,10,24,28.90
2021,06,27,10,25,28.90
2021,06,27,10,26,28.90
2021,06,27,10,27,28.90
2021,06,27,10,28,28.90
2021,06,27,10,29,29.00
2021,06,27,10,30,29.00
2021,06,27,10,31,29.00
2021,06,27,10,32,29.00
2021,06,27,10,33,29.00
2021,06,27,10,34,29.00
2021,06,27,10,35,29.10
2021,06,27,10,36,29.20
2021,06,27,10,37,29.30
2021,06,27,10,38,29.30
2021,06,27,10,39,29.40
2021,06,27,10,40,29.40
2021,06,27,10,41,29.50
2021,06,27,10,42,29.40
2021,06,27,10,43,29.40
2021,06,27,10,44,29.30
2021,06,27,10,45,29.30
2021,06,27,10,46,29.20
2021,06,27,10,47,29.20
2021,06,27,10,48,29.10
2021,06,27,10,49,29.10
2021,06,27,10,50,29.10
2021,06,27,10,51,29.10
2021,06,27,10,52,29.20
2021,06,27,10,53,29.20
2021,06,27,10,54,29.30
2021,06,27,10,55,29.30
2021,06,27,10,56,29.30
2021,06,27,10,57,29.30
2021,06,27,10,58,29.30
2021,06,27,10,59,29.30
2021,06,27,11,00,29.30
2021,06,27,11,01,29.30
2021,06,27,11,02,29.40
2021,06,27,11,03,29.40
2021,06,27,11,04,29.40
2021,06,27,11,05,29.40
2021,06,27,11,06,29.50
2021,06,27,11,07,29.60
2021,06,27,11,08,29.60
2021,06,27,11,09,29.60
2021,06,27,11,10,29.50
2021,06,27,11,11,29.50
2021,06,27,11,12,29.40
2021,06,27,11,13,29.50
2021,06,27,11,14,29.60
2021,06,27,11,15,29.60
2021,06,27,11,16,29.70
2021,06,27,11,17,29.70
2021,06,27,11,18,29.70
2021,06,27,11,19,29.80
2021,06,27,11,20,29.80
2021,06,27,11,21,29.80
2021,06,27,11,22,29.80
2021,06,27,11,23,29.90
2021,06,27,11,24,29.80
2021,06,27,11,25,29.90
2021,06,27,11,26,30.00
2021,06,27,11,27,30.10
2021,06,27,11,28,30.20
2021,06,27,11,29,30.20
2021,06,27,11,30,30.10
2021,06,27,11,31,30.00
2021,06,27,11,32,29.90
2021,06,27,11,33,29.90
2021,06,27,11,34,29.90
2021,06,27,11,35,30.00
2021,06,27,11,36,30.00
2021,06,27,11,37,30.00
2021,06,27,11,38,30.00
2021,06,27,11,39,30.10
2021,06,27,11,40,30.10
2021,06,27,11,41,30.10
2021,06,27,11,42,30.20
2021,06,27,11,43,30.10
2021,06,27,11,44,30.10
2021,06,27,11,45,30.20
2021,06,27,11,46,30.10
2021,06,27,11,47,30.20
2021,06,27,11,48,30.20
2021,06,27,11,49,30.20
2021,06,27,11,50,30.30
2021,06,27,11,51,30.20
2021,06,27,11,52,30.30
2021,06,27,11,53,30.40
2021,06,27,11,54,30.40
2021,06,27,11,55,30.40
2021,06,27,11,56,30.50
2021,06,27,11,57,30.60
2021,06,27,11,58,30.60
2021,06,27,11,59,30.70
2021,06,27,12,00,30.70
2021,06,27,12,01,30.80
2021,06,27,12,02,30.90
2021,06,27,12,03,30.90
2021,06,27,12,04,31.00
2021,06,27,12,05,31.10
2021,06,27,12,06,31.20
2021,06,27,12,07,31.30
2021,06,27,12,08,31.30
2021,06,27,12,09,31.30
2021,06,27,12,10,31.30
2021,06,27,12,11,31.30
2021,06,27,12,12,31.40
2021,06,27,12,13,31.40
2021,06,27,12,14,31.50
2021,06,27,12,15,31.60
2021,06,27,12,16,31.50
2021,06,27,12,17,31.50
2021,06,27,12,18,31.40
2021,06,27,12,19,31.40
2021,06,27,12,20,31.40
2021,06,27,12,21,31.40
2021,06,27,12,22,31.50
2021,06,27,12,23,31.60
2021,06,27,12,24,31.60
2021,06,27,12,25,31.60
2021,06,27,12,26,31.60
2021,06,27,12,27,31.50
2021,06,27,12,28,31.40
2021,06,27,12,29,31.40
2021,06,27,12,30,31.40
2021,06,27,12,31,31.40
2021,06,27,12,32,31.40
2021,06,27,12,33,31.40
2021,06,27,12,34,31.40
2021,06,27,12,35,31.40
2021,06,27,12,36,31.50
2021,06,27,12,37,31.50
2021,06,27,12,38,31.60
2021,06,27,12,39,31.70
2021,06,27,12,40,31.70
2021,06,27,12,41,31.70
2021,06,27,12,42,31.70
2021,06,27,12,43,31.70
2021,06,27,12,44,31.80
2021,06,27,12,45,31.80
2021,06,27,12,46,31.90
2021,06,27,12,47,32.00
2021,06,27,12,48,32.10
2021,06,27,12,49,32.10
2021,06,27,12,50,32.00
2021,06,27,12,51,32.00
2021,06,27,12,52,32.00
2021,06,27,12,53,32.00
2021,06,27,12,54,32.10
2021,06,27,12,55,32.20
2021,06,27,12,56,32.30
2021,06,27,12,57,32.40
2021,06,27,12,58,32.40
2021,06,27,12,59,32.40
2021,06,27,13,00,32.50
2021,06,27,13,01,32.50
2021,06,27,13,02,32.60
2021,06,27,13,03,32.70
2021,06,27,13,04,32.70
2021,06,27,13,05,32.80
2021,06,27,13,06,32.90
2021,06,27,13,07,32.90
2021,06,27,13,08,32.90
2021,06,27,13,09,32.90
2021,06,27,13,10,32.80
2021,06,27,13,11,32.80
2021,06,27,13,12,32.80
2021,06,27,13,13,32.80
2021,06,27,13,14,32.90
2021,06,27,13,15,33.00
2021,06,27,13,16,33.00
2021,06,27,13,17,33.10
2021,06,27,13,18,33.30
2021,06,27,13,19,33.30
2021,06,27,13,20,33.40
2021,06,27,13,21,33.60
2021,06,27,13,22,33.60
2021,06,27,13,23,33.60
2021,06,27,13,24,33.70
2021,06,27,13,25,33.80
2021,06,27,13,26,33.80
2021,06,27,13,27,33.80
2021,06,27,13,28,33.80
2021,06,27,13,29,33.90
2021,06,27,13,30,34.00
2021,06,27,13,31,34.10
2021,06,27,13,32,34.00
2021,06,27,13,33,33.90
2021,06,27,13,34,33.80
2021,06,27,13,35,33.70
2021,06,27,13,36,33.70
2021,06,27,13,37,33.70
2021,06,27,13,38,33.70
2021,06,27,13,39,33.70
2021,06,27,13,40,33.80
2021,06,27,13,41,33.80
2021,06,27,13,42,33.90
2021,06,27,13,43,34.00
2021,06,27,13,44,34.10
2021,06,27,13,45,34.10
2021,06,27,13,46,34.20
2021,06,27,13,47,34.20
2021,06,27,13,48,34.30
2021,06,27,13,49,34.30
2021,06,27,13,50,34.30
2021,06,27,13,51,34.30
2021,06,27,13,52,34.30
2021,06,27,13,53,34.40
2021,06,27,13,54,34.40
2021,06,27,13,55,34.50
2021,06,27,13,56,34.40
2021,06,27,13,57,34.40
2021,06,27,13,58,34.30
2021,06,27,13,59,34.20
2021,06,27,14,00,34.10
2021,06,27,14,01,34.00
2021,06,27,14,02,33.90
2021,06,27,14,03,33.90
2021,06,27,14,04,33.90
2021,06,27,14,05,33.90
2021,06,27,14,06,34.00
2021,06,27,14,07,34.00
2021,06,27,14,08,34.10
2021,06,27,14,09,34.10
2021,06,27,14,10,34.10
2021,06,27,14,11,34.20
2021,06,27,14,12,34.20
2021,06,27,14,13,34.20
2021,06,27,14,14,34.20
2021,06,27,14,15,34.20
2021,06,27,14,16,34.30
2021,06,27,14,17,34.30
2021,06,27,14,18,34.40
2021,06,27,14,19,34.50
2021,06,27,14,20,34.70
2021,06,27,14,21,34.80
2021,06,27,14,22,34.90
2021,06,27,14,23,34.90
2021,06,27,14,24,34.80
2021,06,27,14,25,34.70
2021,06,27,14,26,34.70
2021,06,27,14,27,34.70
2021,06,27,14,28,34.70
2021,06,27,14,29,34.70
2021,06,27,14,30,34.70
2021,06,27,14,31,34.80
2021,06,27,14,32,35.00
2021,06,27,14,33,35.10
2021,06,27,14,34,35.30
2021,06,27,14,35,35.40
2021,06,27,14,36,35.40
2021,06,27,14,37,35.30
2021,06,27,14,38,35.20
2021,06,27,14,39,35.10
2021,06,27,14,40,35.10
2021,06,27,14,41,35.10
2021,06,27,14,42,35.10
2021,06,27,14,43,35.10
2021,06,27,14,44,35.20
2021,06,27,14,45,35.30
2021,06,27,14,46,35.30
2021,06,27,14,47,35.40
2021,06,27,14,48,35.50
2021,06,27,14,49,35.50
2021,06,27,14,50,35.60
2021,06,27,14,51,35.60
2021,06,27,14,52,35.50
2021,06,27,14,53,35.50
2021,06,27,14,54,35.50
2021,06,27,14,55,35.50
2021,06,27,14,56,35.40
2021,06,27,14,57,35.40
2021,06,27,14,58,35.30
2021,06,27,14,59,35.30
2021,06,27,15,00,35.30
2021,06,27,15,01,35.40
2021,06,27,15,02,35.40
2021,06,27,15,03,35.40
2021,06,27,15,04,35.50
2021,06,27,15,05,35.60
2021,06,27,15,06,35.70
2021,06,27,15,07,35.80
2021,06,27,15,08,35.80
2021,06,27,15,09,35.90
2021,06,27,15,10,36.00
2021,06,27,15,11,36.00
2021,06,27,15,12,36.00
2021,06,27,15,13,36.00
2021,06,27,15,14,36.10
2021,06,27,15,15,36.10
2021,06,27,15,16,36.10
2021,06,27,15,17,36.00
2021,06,27,15,18,36.00
2021,06,27,15,19,35.90
2021,06,27,15,20,35.70
2021,06,27,15,21,35.60
2021,06,27,15,22,35.50
2021,06,27,15,23,35.40
2021,06,27,15,24,35.40
2021,06,27,15,25,35.30
2021,06,27,15,26,35.30
2021,06,27,15,27,35.30
2021,06,27,15,28,35.30
2021,06,27,15,29,35.40
2021,06,27,15,30,35.40
2021,06,27,15,31,35.30
2021,06,27,15,32,35.30
2021,06,27,15,33,35.30
2021,06,27,15,34,35.20
2021,06,27,15,35,35.10
2021,06,27,15,36,35.10
2021,06,27,15,37,35.10
2021,06,27,15,38,35.10
2021,06,27,15,39,35.10
2021,06,27,15,40,35.00
2021,06,27,15,41,35.00
2021,06,27,15,42,35.00
2021,06,27,15,43,35.00
2021,06,27,15,44,35.00
2021,06,27,15,45,35.10
2021,06,27,15,46,35.10
2021,06,27,15,47,35.20
2021,06,27,15,48,35.20
2021,06,27,15,49,35.20
2021,06,27,15,50,35.20
2021,06,27,15,51,35.20
2021,06,27,15,52,35.20
2021,06,27,15,53,35.20
2021,06,27,15,54,35.20
2021,06,27,15,55,35.20
2021,06,27,15,56,35.30
2021,06,27,15,57,35.30
2021,06,27,15,58,35.30
2021,06,27,15,59,35.30
2021,06,27,16,00,35.30
2021,06,27,16,01,35.30
2021,06,27,16,02,35.40
2021,06,27,16,03,35.50
2021,06,27,16,04,35.60
2021,06,27,16,05,35.60
2021,06,27,16,06,35.70
2021,06,27,16,07,35.80
2021,06,27,16,08,35.80
2021,06,27,16,09,35.90
2021,06,27,16,10,35.90
2021,06,27,16,11,36.00
2021,06,27,16,12,36.00
2021,06,27,16,13,36.10
2021,06,27,16,14,36.20
2021,06,27,16,15,36.10
2021,06,27,16,16,36.10
2021,06,27,16,17,36.10
2021,06,27,16,18,36.10
2021,06,27,16,19,36.20
2021,06,27,16,20,36.30
2021,06,27,16,21,36.30
2021,06,27,16,22,36.30
2021,06,27,16,23,36.30
2021,06,27,16,24,36.40
2021,06,27,16,25,36.50
2021,06,27,16,26,36.50
2021,06,27,16,27,36.50
2021,06,27,16,28,36.60
2021,06,27,16,29,36.50
2021,06,27,16,30,36.40
2021,06,27,16,31,36.40
2021,06,27,16,32,36.30
2021,06,27,16,33,36.40
2021,06,27,16,34,36.40
2021,06,27,16,35,36.30
2021,06,27,16,36,36.40
2021,06,27,16,37,36.40
2021,06,27,16,38,36.40
2021,06,27,16,39,36.40
2021,06,27,16,40,36.50
2021,06,27,16,41,36.50
2021,06,27,16,42,36.60
2021,06,27,16,43,36.60
2021,06,27,16,44,36.70
2021,06,27,16,45,36.70
2021,06,27,16,46,36.70
2021,06,27,16,47,36.70
2021,06,27,16,48,36.70
2021,06,27,16,49,36.70
2021,06,27,16,50,36.70
2021,06,27,16,51,36.70
2021,06,27,16,52,36.60
2021,06,27,16,53,36.70
2021,06,27,16,54,36.70
2021,06,27,16,55,36.70
2021,06,27,16,56,36.60
2021,06,27,16,57,36.70
2021,06,27,16,58,36.60
2021,06,27,16,59,36.50
2021,06,27,17,00,36.50
2021,06,27,17,01,36.50
2021,06,27,17,02,36.50
2021,06,27,17,03,36.50
2021,06,27,17,04,36.50
2021,06,27,17,05,36.60
2021,06,27,17,06,36.70
2021,06,27,17,07,36.80
2021,06,27,17,08,36.80
2021,06,27,17,09,36.90
2021,06,27,17,10,36.90
2021,06,27,17,11,37.00
2021,06,27,17,12,37.00
2021,06,27,17,13,37.10
2021,06,27,17,14,37.20
2021,06,27,17,15,37.20
2021,06,27,17,16,37.10
2021,06,27,17,17,37.10
2021,06,27,17,18,37.20
2021,06,27,17,19,37.20